Location: Newark
(44.2003°N, 3.2583°E)
Time: 21:24:16
(UTC+00:00)

deb Explorer IX - Visible Passes

Search period start: 15 October 2019 00:00
Search period end: 25 October 2019 00:00
Orbit: 544 x 1107 km, 38.8° (Epoch: 14 October)

Date Brightness Start Highest point End Pass type
(mag) Time Alt. Az. Time Alt. Az. Time Alt. Az.
15 Oct ? 18:32:00 10° W 18:38:42 47° SSW 18:43:22 21° SE visible
15 Oct ? 20:19:49 10° W 20:24:46 24° SW 20:24:46 24° SW visible
16 Oct ? 18:10:05 10° W 18:16:39 46° SSW 18:22:45 14° SE visible
16 Oct ? 19:57:51 10° W 20:03:21 24° SSW 20:04:08 23° SSW visible
17 Oct ? 17:48:10 10° W 17:54:37 46° SSW 18:01:31 10° SE visible
17 Oct ? 19:35:55 10° W 19:41:18 23° SSW 19:43:37 20° S visible
18 Oct ? 17:26:17 10° W 17:32:35 45° SSW 17:39:26 10° SE visible
18 Oct ? 19:14:00 10° W 19:19:16 23° SSW 19:23:12 15° S visible
19 Oct ? 18:52:07 10° W 18:57:15 22° SSW 19:02:34 10° SSE visible
20 Oct ? 18:30:16 10° WSW 18:35:14 21° SSW 18:40:25 10° SSE visible
21 Oct ? 18:08:27 10° WSW 18:13:12 21° SSW 18:18:15 10° SSE visible
22 Oct ? 17:46:38 10° WSW 17:51:12 20° SSW 17:56:04 10° SSE visible
23 Oct ? 17:24:52 10° WSW 17:29:13 19° SSW 17:33:51 10° S visible
